Sigfox identifier Datetime Temperature Humidity SNR
003BD7D9 2018-10-09 08:39:31 20.7 39 17.6
003BD7D9 2018-10-09 07:38:42 20.7 39 17.2
003BD7D9 2018-10-09 06:37:49 20.7 39 17.1
003BD7D9 2018-10-09 05:36:57 20.7 39 16.8
003BD7D9 2018-10-09 04:36:04 20.7 39 16.5
003BD7D9 2018-10-09 01:33:37 20.7 38 15.7
003BD7D9 2018-10-09 00:32:48 20.7 38 15.7
003BD7D9 2018-10-08 23:31:58 20.7 38 15.4
003BD7D9 2018-10-08 22:31:07 20.7 38 15
003BD7D9 2018-10-08 21:30:18 20.7 38 14.7
003BD7D9 2018-10-08 20:29:27 20.7 38 13.9
003BD7D9 2018-10-08 19:28:37 20.7 38 13.9
003BD7D9 2018-10-08 18:27:49 20.8 37 13.8
003BD7D9 2018-10-08 17:26:59 20.7 37 12.6
003BD7D9 2018-10-08 16:26:14 20.8 37 12.4
003BD7D9 2018-10-08 15:25:24 20.7 37 10.4
003BD7D9 2018-10-08 14:24:38 20.7 37 10
003BD7D9 2018-10-08 13:23:50 20.7 37 9.9
003BD7D9 2018-10-08 12:23:00 20.7 36 9.8
003BD7D9 2018-10-08 05:16:57 20.5 36 10.6
003BD7D9 2018-10-08 04:16:04 20.5 36 10.5
003BD7D9 2018-10-08 03:15:09 20.5 37 10.3
003BD7D9 2018-10-08 02:14:14 20.5 37 10.5
003BD7D9 2018-10-08 01:13:27 20.5 37 10.7
003BD7D9 2018-10-08 00:12:35 20.5 38 10.7
003BD7D9 2018-10-07 21:09:50 20.6 38 10.6
003BD7D9 2018-10-07 19:08:11 20.7 39 10.6
003BD7D9 2018-10-07 18:07:15 20.7 39 10.6
003BD7D9 2018-10-07 17:06:21 20.6 39 10.8
003BD7D9 2018-10-07 15:04:31 20.7 39 10.8
003BD7D9 2018-10-07 12:01:51 20.7 39 10.8
003BD7D9 2018-10-07 06:57:34 20.7 40 10.8
003BD7D9 2018-10-07 03:54:54 20.7 40 10.9
003BD7D9 2018-10-07 00:52:16 20.8 40 11
003BD7D9 2018-10-06 21:49:46 20.9 40 10.8
003BD7D9 2018-10-06 20:48:56 20.9 40 10.8
003BD7D9 2018-10-06 19:48:06 21 40 10.9
003BD7D9 2018-10-06 18:47:20 20.9 40 11
003BD7D9 2018-10-06 17:46:32 21 41 10.8
003BD7D9 2018-10-06 16:45:46 21 41 10.8
003BD7D9 2018-10-06 15:44:54 21 41 10.9
003BD7D9 2018-10-06 13:43:14 21 41 11
003BD7D9 2018-10-06 12:42:23 21 41 11.1
003BD7D9 2018-10-06 11:41:29 21 41 10.8
003BD7D9 2018-10-06 09:39:48 21 41 9.8
003BD7D9 2018-10-06 08:39:00 21 41 9.9
003BD7D9 2018-10-06 07:38:14 21 41 10.1
003BD7D9 2018-10-06 06:37:21 21 42 9.5
003BD7D9 2018-10-06 05:36:27 21 42 9.1
003BD7D9 2018-10-06 04:35:35 21 42 9.1
003BD7D9 2018-10-06 03:34:42 21 43 9.3
003BD7D9 2018-10-06 02:33:54 21.1 43 9.4
003BD7D9 2018-10-06 01:33:01 21.2 43 9.6
003BD7D9 2018-10-06 00:32:09 21.1 43 9
003BD7D9 2018-10-05 23:31:15 21.2 44 9.2
003BD7D9 2018-10-05 22:30:23 21.2 44 9.6
003BD7D9 2018-10-05 21:29:30 21.2 44 10
003BD7D9 2018-10-05 19:27:44 21.4 45 9.8
003BD7D9 2018-10-05 18:26:54 21.4 45 9.8
003BD7D9 2018-10-05 16:25:06 21.4 47 10.3
003BD7D9 2018-10-05 15:24:07 21.6 48 12.5
003BD7D9 2018-10-05 14:23:12 21.9 58 0